Mountain Home, Arkansas, United States (72653)
Lat: 36.34N, Lon: 92.39W
Wx Zone: ARZ005
Local Info
Past Weather Observations for Thursday, September 11, 2014

NOTE: This archive is for the closest National Weather Service station to Mountain Home. Information may differ from the station used for current weather conditions.

Click here for Long-term Archive

Time Weather Temperature Dewpoint Humidity Pressure Winds Precip Visibility
23:53
Overcast
61°F / 16°C 55°F / 13°C 83% 30.15 in
(1021 mb)
Variable 4.6 mph
(Variable 7 kph)
- 10SM
22:53
Overcast
61°F / 16°C 55°F / 13°C 83% 30.18 in
(1022 mb)
NE 5.8 mph
(NE 9 kph)
- 10SM
21:53
Overcast
61°F / 16°C 55°F / 13°C 83% 30.15 in
(1021 mb)
Variable 5.8 mph
(Variable 9 kph)
- 10SM
20:53
Overcast
63°F / 17°C 57°F / 14°C 83% 30.15 in
(1021 mb)
Variable 6.9 mph
(Variable 11 kph)
- 10SM
19:53
Overcast
64°F / 18°C 61°F / 16°C 88% 30.12 in
(1020 mb)
Variable 5.8 mph
(Variable 9 kph)
- 10SM
19:39
Overcast
64°F / 18°C 61°F / 16°C 88% 30.12 in
(1020 mb)
NE 5.8 mph
(NE 9 kph)
- 10SM
18:53
Overcast
64°F / 18°C 61°F / 16°C 88% 30.09 in
(1019 mb)
Calm - 10SM
17:53
Overcast
66°F / 19°C 61°F / 16°C 83% 30.09 in
(1019 mb)
Variable 4.6 mph
(Variable 7 kph)
- 10SM
16:53
Overcast
66°F / 19°C 63°F / 17°C 88% 30.06 in
(1018 mb)
Variable 3.5 mph
(Variable 6 kph)
- 10SM
16:40
Overcast
66°F / 19°C 63°F / 17°C 88% 30.06 in
(1018 mb)
NE 4.6 mph
(NE 7 kph)
- 10SM
16:09
Overcast
66°F / 19°C 64°F / 18°C 94% 30.06 in
(1018 mb)
Calm - 10SM
15:53
Overcast
66°F / 19°C 64°F / 18°C 94% 30.06 in
(1018 mb)
Variable 4.6 mph
(Variable 7 kph)
- 10SM
15:49
Overcast
66°F / 19°C 64°F / 18°C 94% 30.06 in
(1018 mb)
Calm - 10SM
15:37
Overcast
66°F / 19°C 64°F / 18°C 94% 30.06 in
(1018 mb)
NE 4.6 mph
(NE 7 kph)
- 10SM
15:06
Overcast
Fog And Mist
66°F / 19°C 64°F / 18°C 94% 30.06 in
(1018 mb)
Calm - 5SM
14:53
Overcast
66°F / 19°C 64°F / 18°C 94% 30.06 in
(1018 mb)
Variable 4.6 mph
(Variable 7 kph)
0.00 in
(0.00 mm)
7SM
14:46
Overcast
66°F / 19°C 64°F / 18°C 94% 30.06 in
(1018 mb)
NE 6.9 mph
(NE 11 kph)
0.00 in
(0.00 mm)
9SM
14:16
Overcast
Fog And Mist
64°F / 18°C 64°F / 18°C 100% 30.06 in
(1018 mb)
NE 4.6 mph
(NE 7 kph)
0.00 in
(0.00 mm)
5SM
14:05
Overcast
Light Rain
64°F / 18°C 64°F / 18°C 100% 30.06 in
(1018 mb)
Variable 3.5 mph
(Variable 6 kph)
0.00 in
(0.00 mm)
4SM
13:53
Overcast
Fog And Mist
64°F / 18°C 64°F / 18°C 100% 30.09 in
(1019 mb)
NE 4.6 mph
(NE 7 kph)
0.01 in
(0.25 mm)
2 1/2SM
13:48
Overcast
Fog And Mist
66°F / 19°C 64°F / 18°C 94% 30.09 in
(1019 mb)
Variable 3.5 mph
(Variable 6 kph)
0.00 in
(0.00 mm)
3SM
13:27
Overcast
Light Rain
64°F / 18°C 64°F / 18°C 100% 30.09 in
(1019 mb)
Variable 3.5 mph
(Variable 6 kph)
0.00 in
(0.00 mm)
2 1/2SM
13:19
Overcast
Light Rain
64°F / 18°C 64°F / 18°C 100% 30.09 in
(1019 mb)
NE 4.6 mph
(NE 7 kph)
0.00 in
(0.00 mm)
2 1/2SM
12:53
Overcast
64°F / 18°C 64°F / 18°C 100% 30.09 in
(1019 mb)
Variable 4.6 mph
(Variable 7 kph)
0.01 in
(0.25 mm)
9SM
12:44
Overcast
64°F / 18°C 64°F / 18°C 100% 30.09 in
(1019 mb)
Variable 4.6 mph
(Variable 7 kph)
0.01 in
(0.25 mm)
7SM
12:36
Overcast
Fog And Mist
64°F / 18°C 64°F / 18°C 100% 30.09 in
(1019 mb)
Variable 4.6 mph
(Variable 7 kph)
0.01 in
(0.25 mm)
3SM
12:15
Overcast
Fog And Mist
64°F / 18°C 64°F / 18°C 100% 30.09 in
(1019 mb)
Variable 3.5 mph
(Variable 6 kph)
0.00 in
(0.00 mm)
2SM
12:04
Overcast
Light Rain
64°F / 18°C 64°F / 18°C 100% 30.09 in
(1019 mb)
Calm 0.00 in
(0.00 mm)
2 1/2SM
11:53
Overcast
Light Rain
64°F / 18°C 64°F / 18°C 100% 30.09 in
(1019 mb)
Variable 4.6 mph
(Variable 7 kph)
0.00 in
(0.00 mm)
3SM
11:37
Overcast
Fog And Mist
64°F / 18°C 64°F / 18°C 100% 30.09 in
(1019 mb)
Variable 3.5 mph
(Variable 6 kph)
0.00 in
(0.00 mm)
3SM
11:17
Overcast
Fog And Mist
64°F / 18°C 64°F / 18°C 100% 30.09 in
(1019 mb)
Variable 3.5 mph
(Variable 6 kph)
0.00 in
(0.00 mm)
3SM
11:07
Overcast
Fog And Mist
64°F / 18°C 63°F / 17°C 94% 30.09 in
(1019 mb)
Variable 5.8 mph
(Variable 9 kph)
0.00 in
(0.00 mm)
2 1/2SM
10:53
Overcast
Light Rain
64°F / 18°C 64°F / 18°C 100% 30.09 in
(1019 mb)
Variable 4.6 mph
(Variable 7 kph)
0.02 in
(0.51 mm)
2SM
10:51
Overcast
Light Rain
64°F / 18°C 64°F / 18°C 100% 30.09 in
(1019 mb)
Variable 4.6 mph
(Variable 7 kph)
0.02 in
(0.51 mm)
2SM
10:23
Overcast
Light Rain
64°F / 18°C 64°F / 18°C 100% 30.09 in
(1019 mb)
Variable 4.6 mph
(Variable 7 kph)
0.01 in
(0.25 mm)
1 3/4SM
09:53
Overcast
Light Rain
64°F / 18°C 64°F / 18°C 100% 30.09 in
(1019 mb)
Variable 3.5 mph
(Variable 6 kph)
0.02 in
(0.51 mm)
2 1/2SM
09:45
Overcast
Light Rain
64°F / 18°C 64°F / 18°C 100% 30.09 in
(1019 mb)
N 3.5 mph
(N 6 kph)
0.02 in
(0.51 mm)
2SM
09:17
Overcast
Light Rain
64°F / 18°C 64°F / 18°C 100% 30.06 in
(1018 mb)
Variable 3.5 mph
(Variable 6 kph)
0.01 in
(0.25 mm)
1 3/4SM
09:05
Overcast
Light Rain
64°F / 18°C 64°F / 18°C 100% 30.06 in
(1018 mb)
Variable 3.5 mph
(Variable 6 kph)
0.00 in
(0.00 mm)
2SM
08:53
Overcast
Fog And Mist
64°F / 18°C 64°F / 18°C 100% 30.06 in
(1018 mb)
Calm - 4SM
07:53
Overcast
66°F / 19°C 63°F / 17°C 88% 30.04 in
(1017 mb)
N 4.6 mph
(N 7 kph)
0.00 in
(0.00 mm)
7SM
06:53
Overcast
Light Rain
66°F / 19°C 63°F / 17°C 88% 30.01 in
(1016 mb)
Variable 5.8 mph
(Variable 9 kph)
0.05 in
(1.27 mm)
5SM
06:30
Overcast
Light Rain
66°F / 19°C 64°F / 18°C 94% 29.98 in
(1015 mb)
Variable 4.6 mph
(Variable 7 kph)
0.04 in
(1.02 mm)
6SM
06:25
Overcast
Light Rain
68°F / 20°C 64°F / 18°C 88% 30.01 in
(1016 mb)
Variable 4.6 mph
(Variable 7 kph)
0.04 in
(1.02 mm)
6SM
05:53
Overcast
Light Rain
68°F / 20°C 68°F / 20°C 100% 29.98 in
(1015 mb)
Calm 0.11 in
(2.79 mm)
5SM
05:46
Overcast
Light Rain
68°F / 20°C 68°F / 20°C 100% 29.98 in
(1015 mb)
Calm 0.11 in
(2.79 mm)
6SM
05:40
Overcast
Light Rain
70°F / 21°C 68°F / 20°C 94% 29.98 in
(1015 mb)
Variable 3.5 mph
(Variable 6 kph)
0.10 in
(2.54 mm)
5SM
04:53
Overcast
Rain
70°F / 21°C 68°F / 20°C 94% 29.98 in
(1015 mb)
NNW 3.5 mph
(NNW 6 kph)
0.06 in
(1.52 mm)
4SM
04:30
Overcast
Light Rain
70°F / 21°C 70°F / 21°C 100% 29.98 in
(1015 mb)
Calm 0.02 in
(0.51 mm)
7SM
03:53
Overcast
Light Rain
70°F / 21°C 70°F / 21°C 100% 29.95 in
(1014 mb)
Calm 0.01 in
(0.25 mm)
8SM
03:43
Overcast
Light Rain
70°F / 21°C 70°F / 21°C 100% 29.95 in
(1014 mb)
Calm 0.01 in
(0.25 mm)
8SM
03:28
Overcast
70°F / 21°C 70°F / 21°C 100% 29.95 in
(1014 mb)
Calm 0.00 in
(0.00 mm)
10SM
02:53
Overcast
72°F / 22°C 70°F / 21°C 94% 29.95 in
(1014 mb)
Calm 0.00 in
(0.00 mm)
9SM
02:40
Overcast
Light Rain
72°F / 22°C 70°F / 21°C 94% 29.95 in
(1014 mb)
Calm 0.00 in
(0.00 mm)
9SM
01:53
Overcast
Light Rain
72°F / 22°C 72°F / 22°C 100% 29.92 in
(1013 mb)
Calm 0.00 in
(0.00 mm)
8SM
01:12
Overcast
72°F / 22°C 72°F / 22°C 100% 29.92 in
(1013 mb)
Calm - 9SM
01:03
Overcast
72°F / 22°C 72°F / 22°C 100% 29.92 in
(1013 mb)
Calm - 9SM
00:53
Mostly Cloudy
72°F / 22°C 72°F / 22°C 100% 29.92 in
(1013 mb)
Calm 0.00 in
(0.00 mm)
9SM
00:01
Overcast
Light Rain
73°F / 23°C 72°F / 22°C 94% 29.92 in
(1013 mb)
NE 6.9 mph
(NE 11 kph)
0.00 in
(0.00 mm)
6SM
Time Weather Temperature Dewpoint Humidity Pressure Winds Precip Visibility


Weather for websites

WeatherForYou.com, LLC is not responsible for any damages or problems caused by this service. Current weather conditions are obtained from the closest station including government and personal stations which may have varying degrees of accuracy. Weather forecasts are derived from the NOAA NDFD. Like all things, this site belongs to Jesus Christ... He just trusts me to maintain it. If you have any questions or comments email webmaster@weatherforyou.com

Copyright © 2014, WeatherForYou.com LLC. All rights reserved.